This is the latest recevied weather packets stored in our database for station/object K6GMW. If no packets are shown the sender has not sent any weather packets the latest 10 day(s).
| Time | Temp. | Humidity | Pressure | Rain* | Wind** | Luminosity | Snow |
|---|---|---|---|---|---|---|---|
| 1787877408 | 32.22° C | 53% | 1015 hPa | 0 mm | - | 23 W/m² | - |
| 1787877104 | 32.78° C | 52% | 1014.8 hPa | 0 mm | - | 30 W/m² | - |
| 1787876803 | 32.78° C | 52% | 1014.6 hPa | 0 mm | - | 37 W/m² | - |
| 1787876498 | 33.33° C | 51% | 1014.8 hPa | 0 mm | - | 44 W/m² | - |
| 1787876197 | 33.89° C | 50% | 1014.6 hPa | 0 mm | - | 51 W/m² | - |
| 1787875892 | 33.89° C | 49% | 1014.7 hPa | 0 mm | - | 58 W/m² | - |
| 1787875592 | 33.89° C | 49% | 1014.7 hPa | 0 mm | - | 64 W/m² | - |
| 1787875292 | 33.89° C | 49% | 1014.6 hPa | 0 mm | - | 68 W/m² | - |
| 1787874989 | 34.44° C | 48% | 1014.6 hPa | 0 mm | - | 71 W/m² | - |
| 1787874685 | 33.89° C | 48% | 1014.7 hPa | 0 mm | - | 71 W/m² | - |
| 1787874383 | 33.89° C | 48% | 1014.6 hPa | 0 mm | - | 62 W/m² | - |
| 1787874079 | 34.44° C | 48% | 1014.7 hPa | 0 mm | - | 78 W/m² | - |
| 1787873778 | 34.44° C | 47% | 1014.8 hPa | 0 mm | - | 74 W/m² | - |
| 1787873474 | 34.44° C | 46% | 1014.7 hPa | 0 mm | - | 101 W/m² | - |
| 1787873169 | 34.44° C | 47% | 1014.7 hPa | 0 mm | - | 122 W/m² | - |
| 1787872867 | 35.56° C | 45% | 1014.7 hPa | 0 mm | - | 113 W/m² | - |
| 1787872563 | 35.56° C | 45% | 1014.5 hPa | 0 mm | - | 178 W/m² | - |
| 1787872258 | 35.56° C | 45% | 1014.6 hPa | 0 mm | - | 196 W/m² | - |
| 1787871957 | 35° C | 45% | 1014.7 hPa | 0 mm | - | 206 W/m² | - |
| 1787871654 | 35° C | 46% | 1014.7 hPa | 0 mm | - | 191 W/m² | - |
| 1787871349 | 34.44° C | 48% | 1014.9 hPa | 0 mm | - | 190 W/m² | - |
| 1787871044 | 34.44° C | 47% | 1014.7 hPa | 0 mm | - | 171 W/m² | - |
| 1787870743 | 35.56° C | 46% | 1014.8 hPa | 0 mm | - | 115 W/m² | - |
| 1787870439 | 35.56° C | 46% | 1014.8 hPa | 0 mm | - | 223 W/m² | - |
| 1787870133 | 36.11° C | 45% | 1015 hPa | 0 mm | - | 279 W/m² | - |
* Rain latest hour (hover to see other rain measurements)
** Current wind speed in m/s (hover to see current wind gust speed)